Location: *
(43.4667°N, 11.6833°E)
Time: 09:49:07
(UTC+00:00)

Cosmos 1515 Rocket - Pass Details

Date: 19 July 2019
Orbit: 605 x 631 km, 82.5° (Epoch: 19 August)

Event Time Altitude Azimuth Distance (km) Brightness Sun altitude
Rises 20:28:55 0° 349° (N) 2,885 8.1 -14.8°
Reaches altitude 10° 20:31:09 10° 347° (NNW) 1,972 7.1 -15.0°
Maximum altitude 20:35:29 71° 265° (W) 646 3.7 -15.5°
Enters shadow 20:38:27 20° 184° (S) 1,426 5.0 -15.9°
